User: anonymous   Login
Location: Unspecified
(0.0000°N, 0.0000°E)
Time: 23:05:37
(UTC+00:00)
Language:

ONEWEB-0700 - Orbit

View from above orbital plane
View from above orbital plane
View from above satellite
View from above satellite

Ground track
Ground track

The orbit is defined by the following mean orbital elements,

1 61606U          26145.46264853 +.00000000 +00000-0 +18704-2 0 00000
2 61606  87.8875  40.6950 0001262  95.5164 264.6107 13.10374214    01
Epoch (UTC): 25 May 2026 11:06:12
Eccentricity: 0.0001262
inclination: 87.8875°
perigee height: 1221 km
apogee height: 1223 km
right ascension of ascending node: 40.6950°
argument of perigee: 95.5164°
revolutions per day: 13.10374214
mean anomaly at epoch: 264.6107°

The dashed part of the orbit path shows where the satellite is in the earth's shadow,  

DLR